Regional Weather Roundup
Issued by NWS Cleveland, OH

Home | Current Version | Previous Version | Text Only | Print | Product List | Glossary Off
Versions: 1 2 3 4 5 6 7 8 9 10 11 12 13 14 15 16 17 18 19 20 21 22 23 24 25 26 27 28 29 30 31 32 33 34 35 36 37 38 39 40 41 42 43 44 45 46 47 48 49 50

000
ASUS41 KCLE 191202
RWRCLE
OHIO REGIONAL WEATHER ROUNDUP
NATIONAL WEATHER SERVICE CLEVELAND, OH
800 AM EDT SAT APR 19 2014

NOTE: "FAIR" INDICATES FEW OR NO CLOUDS BELOW 12,000 FEET WITH NO
SIGNIFICANT WEATHER AND/OR OBSTRUCTIONS TO VISIBILITY.

OHZ001>008-015>018-024>027-034-035-043-044-191300-
   NORTHWEST OHIO

CITY           SKY/WX    TMP DP  RH WIND       PRES   REMARKS
DEFIANCE       SUNNY     37  29  72 NE9       30.42R
FINDLAY        SUNNY     38  32  79 NE13      30.39R
TOLEDO EXPRESS SUNNY     36  29  75 NE8       30.42R
TOLEDO EXEC    SUNNY     39  31  72 NE8       30.43R
LIMA           SUNNY     39  34  82 NE14      30.38R
$$

OHZ009>014-019>023-028>033-038-089-191300-
   NORTHEAST OHIO

CITY           SKY/WX    TMP DP  RH WIND       PRES   REMARKS
CLE-HOPKINS    SUNNY     40  33  76 N8        30.43R
CLE-LAKEFRONT  SUNNY     39  34  82 NE7       30.41R
CUY CO. ARPT   SUNNY     37  32  81 NE9       30.40R
LORAIN-ELYRIA  SUNNY     39  32  76 NE7       30.41R
ASHTABULA      SUNNY     36  29  75 N7        30.40R
AKRON-CANTON   MOSUNNY   39  36  89 NE9       30.37R
WOOSTER        SUNNY     39  35  86 N9        30.38R FOG
MANSFIELD      SUNNY     37  34  89 N9        30.37R
YOUNGSTOWN     MOSUNNY   39  33  79 N6        30.37R
$$

OHZ042-051>053-060>062-070>072-077>081-191300-
  SOUTHWEST OHIO

CITY           SKY/WX    TMP DP  RH WIND       PRES   REMARKS
CINC-COVINGTON MOSUNNY   49  39  68 N8        30.28R
CINC-LUNKEN    SUNNY     44  41  89 NE5       30.31R
HAMILTON       SUNNY     49  41  74 NE7       30.32R
DAYTON         MOSUNNY   45  40  82 NE9       30.34R HAZE
WRIGHT-PAT AFB SUNNY     46  40  82 NE12      30.33R
DAYTON GENERAL SUNNY     47  41  80 NE12      30.31R
WILMINGTON     SUNNY     46  41  82 NE14      30.30R
$$

OHZ036-037-039>041-045>050-054>059-063>069-073>076-082>088-191300-
  CENTRAL AND SOUTHEAST OHIO

CITY           SKY/WX    TMP DP  RH WIND       PRES   REMARKS
COLUMBUS       MOSUNNY   49  39  68 N8        30.33R
OSU AIRPORT    SUNNY     45  40  82 N6        30.34R
BOLTON FIELD   SUNNY     46  39  76 N8        30.34R
RICKENBACK AFB NOT AVBL
NEWARK         MOSUNNY   47  39  74 VRB6      30.33R
MARION         SUNNY     38  34  85 NE13      30.37R FOG
LANCASTER      SUNNY     46  40  79 N5        30.32R
ZANESVILLE     MOSUNNY   46  39  76 N7        30.32R
NEW PHILLY     SUNNY     45  38  76 N5        30.37R
$$



USA.gov is the U.S. government's official web portal to all federal, state and local government web resources and services.